User: anonymous   Login
Location: Hamburg
(53.5500°N, 10.0000°E)
Time: 12:19:04
(UTC+02:00)
Language:

Iridium 10 - Orbit

View from above orbital plane
View from above orbital plane
View from above satellite
View from above satellite

Ground track
Ground track

The orbit data is extracted from the following two-line orbital elements,

1 24839U 97030D   16181.42360108  .00000117  00000-0  34882-4 0  9994
2 24839  86.3977 137.5616 0002260  86.4970  27.0945 14.34217456996391
Epoch (UTC): 29 June 2016 10:09:59
Eccentricity: 0.0002260
inclination: 86.3977°
perigee height: 776 km
apogee height: 779 km
right ascension of ascending node: 137.5616°
argument of perigee: 86.4970°
revolutions per day: 14.34217456
mean anomaly at epoch: 27.0945°
orbit number at epoch: 99639

The dashed part of the orbit path shows where the satellite is in the earth's shadow,  

DLR